www.pogodaiklimat.ru

Погода и климат >> Архив погоды >> Россия >> Чукотка >> Остров Врангеля


АРХИВ ПОГОДЫ на Острове Врангеля

Время (UTC), дата Ветер
(напр.,м/с)
 
Видим.   Явления Облачность Т
(С)
Тd
(С)
f
(%)
Тe
(С)
Тes
(С)
Комфортность P
(гПа)
Po
(гПа)
Тmin
(С)
Tmax
(С)
R
(мм)
R24
(мм)
S
(см)
15 19.03 ЮЗ 5
{10}
10 км снежные кристаллы {метель} 10/3 600 м
[Sc As op]
-22.8 -25.0 82 -34 -34 опасность
обморожения
995.6 992.7
18 19.03 З 5
{9}
20 км {снег, метель} 8/1 600 м
[Sc Ac trans]
-26.0 -28.7 78 -38 -38 опасность
обморожения
996.9 994.0 -26.3 0.5 40
21 19.03 З 5
{8}
4000 м слаб. снег 10/6 300 м
[Sc As op]
-23.5 -26.0 80 -34 -34 опасность
обморожения
998.1 995.2
00 20.03 З 7
{10}
4000 м слаб. снег {метель} 10/4 600 м
[Sc As op]
-22.2 -24.6 81 -35 -34 опасность
обморожения
999.3 996.5
03 20.03 З 9-10
{12}
4000 м слаб. снег {метель} 10/4 600 м
[Sc As op]
-22.7 -25.2 80 -37 -37 опасность
обморожения
1001.2 998.3
06 20.03 З 10-11
{13}
4000 м слаб. снег {метель} 10/5 600 м
[Sc As op]
-23.1 -25.6 80 -38 -38 опасность
обморожения
1003.7 1000.8 -22.1 0.2
09 20.03 ЮЗ 9-10
{13}
4000 м слаб. снег {метель} 10/3 600 м
[Sc As op]
-24.0 -26.5 80 -38 -38 опасность
обморожения
1007.4 1004.5
12 20.03 ЮЗ 7
{13}
20 км позёмок {снег} 8/3 600 м
[Sc Ac trans]
-25.0 -27.6 79 -38 -38 опасность
обморожения
1010.8 1007.9
15 20.03 З 7
{10}
20 км позёмок 8/3 600 м
[Sc Ac trans]
-24.8 -27.4 79 -38 -38 опасность
обморожения
1013.5 1010.6
18 20.03 З 3
{9}
20 км {метель} 10/5 600 м
[Sc Ac und]
-24.0 -26.6 79 -32 -32 опасность
обморожения
1015.7 1012.8 -25.4 0.0 42
21 20.03 З 9-11
{11}
20 км позёмок 9/4 600 м
[Sc Ac trans Ci fib]
-22.0 -24.5 80 -36 -36 опасность
обморожения
1017.6 1014.7
00 21.03 В 1
{11}
20 км {метель} 9/3 600 м
[Sc Ac trans Ci fib]
-20.1 -22.7 80 -23 -22 1019.3 1016.4
03 21.03 З 1
{3}
20 км 10/3 600 м
[Sc Ac trans Cs]
-20.6 -23.2 80 -24 -23 1020.0 1017.1
06 21.03 З 1
{4}
20 км 10/5 600 м
[Sc Ac trans Cs]
-20.9 -23.0 83 -24 -24 1021.3 1018.4 -19.3
09 21.03 СВ 1
{4}
20 км 9/4 600 м
[Sc Ac trans Ci fib]
-20.3 -22.3 84 -23 -23 1022.6 1019.7
12 21.03 СЗ 2
{3}
20 км 9/3 600 м
[Sc Ac trans Ci fib]
-20.1 -22.1 84 -26 -26 1023.4 1020.5
15 21.03 СЗ 2
{3}
20 км 9/3 600 м
[Sc Ac trans Ci fib]
-19.7 -21.8 83 -25 -25 1024.3 1021.4
18 21.03 СЗ 1
{3}
20 км 9/4 600 м
[Sc Ac trans Ci fib]
-20.5 -22.3 85 -24 -24 1025.4 1022.5 -22.2 42
21 21.03 С 1
{3}
20 км 9/5 600 м
[Sc Ac lent Ci fib]
-19.7 -21.7 84 -23 -22 1025.7 1022.8
00 22.03 ЮЗ 2
{4}
20 км 8/0
[Ac lent Ci fib]
-17.8 -20.1 82 -23 -22 1026.2 1023.3
03 22.03 штиль 0
{2}
20 км 6/0
[Ac lent Ci fib]
-16.3 -19.0 80 -16 -15 1026.4 1023.6
06 22.03 СЗ 1
{2}
20 км 4/0
[Ac lent Ci fib]
-19.5 -21.4 85 -22 -22 1027.1 1024.2 -15.5
09 22.03 штиль 0
{3}
20 км 4/0
[Ac lent Ci fib]
-22.0 -23.8 85 -22 -22 1027.6 1024.7
12 22.03 штиль 0
{3}
20 км 4/0
[Ac lent Ci fib]
-21.6 -23.5 85 -22 -22 1027.6 1024.7
15 22.03 штиль 0
{2}
20 км 3/0
[Ac trans]
-22.9 -25.2 81 -23 -23 1027.1 1024.1
18 22.03 штиль 0
{1}
20 км 8/0
[Ac lent]
-21.1 -23.1 84 -21 -21 1026.0 1023.1 -24.5 42
21 22.03 С 9-12
{12}
20 км позёмок 9/0
[Ac trans Ci fib]
-17.5 -20.3 79 -30 -30 1024.6 1021.7
00 23.03 С 10-13
{14}
20 км сильный позёмок 9/0
[Ac trans Ci fib]
-17.1 -22.3 64 -30 -30 1023.0 1020.2
03 23.03 С 11-16
{16}
20 км сильный позёмок 10/0
[Ac trans Cs]
-17.6 -21.8 70 -31 -31 опасность
обморожения
1020.2 1017.3
06 23.03 С 15-19
{20}
2000 м метель 10/0
[Ac trans Cs]
-18.6 -21.2 80 -34 -34 опасность
обморожения
1017.8 1014.9 -16.5
09 23.03 С 17-21
{23}
2000 м метель 10/0
[Ac trans Cs]
-18.2 -20.4 83 -34 -34 опасность
обморожения
1015.7 1012.8
12 23.03 С 14-17
{22}
2000 м метель 10/0
[Ac trans Cs]
-17.7 -19.9 83 -32 -32 опасность
обморожения
1014.9 1012.0
15 23.03 С 11-14
{17}
4000 м метель 9/3 600 м
[Sc Ac trans Ci fib]
-17.8 -20.2 81 -31 -31 опасность
обморожения
1013.6 1010.7
18 23.03 С 10-12
{14}
20 км сильный позёмок 10/6 600 м
[Sc Ac und]
-17.7 -20.2 81 -31 -31 опасность
обморожения
1012.7 1009.8 -19.8 38
21 23.03 С 11-14
{14}
10 км позёмок 9/3 600 м
[Sc Ac trans Ci fib]
-18.3 -20.8 81 -32 -32 опасность
обморожения
1011.4 1008.5
00 24.03 С 12-16
{16}
2000 м метель 9/0
[Ac trans Ci fib]
-18.1 -20.7 80 -32 -32 опасность
обморожения
1010.9 1008.0
03 24.03 С 8-11
{16}
20 км позёмок 10/0
[Cs]
-17.5 -21.0 74 -29 -29 1010.8 1008.0
06 24.03 С 7
{12}
20 км позёмок 10/0
[Ac trans Cs]
-18.3 -21.8 74 -30 -30 1011.2 1008.3 -17.4
09 24.03 СЗ 8-10
{12}
20 км позёмок 3/0
[Ci fib]
-19.1 -22.2 76 -31 -31 опасность
обморожения
1011.2 1008.3
12 24.03 СЗ 9-13
{13}
20 км позёмок 3/0
[Ci fib]
-18.9 -21.8 78 -32 -32 опасность
обморожения
1010.7 1007.8
15 24.03 СЗ 8-10
{13}
20 км позёмок 3/0
[Ci fib]
-17.8 -21.1 75 -30 -30 1010.1 1007.2
18 24.03 С 11-14
{14}
20 км сильный позёмок 4/0
[Ci fib]
-17.1 -19.8 79 -30 -30 1008.8 1006.0 -19.4 39
21 24.03 С 12-15
{17}
2000 м метель 10/4 600 м
[Sc Ac und]
-15.6 -18.4 79 -29 -29 1008.0 1005.2
00 25.03 С 16-18
{19}
1000 м слаб. снег {метель} 10/5 600 м
[Sc As op]
-15.8 -17.9 84 -30 -30 1006.3 1003.5
03 25.03 С 14-17
{18}
1000 м слаб. снег {метель} 10/8 300 м
[Sc As op]
-13.0 -14.9 86 -26 -26 1004.6 1001.8
06 25.03 С 17-20
{22}
500 м сильная метель 9/4 600 м
[Sc Ac trans Ci fib]
-14.1 -15.9 86 -28 -28 1004.8 1002.0 -12.9 0.6
09 25.03 СЗ 13-17
{21}
1000 м метель 9/3 600 м
[Sc Ac trans Ci fib]
-11.4 -13.3 86 -24 -24 1005.1 1002.4
12 25.03 СЗ 11-15
{17}
2000 м слаб. снег {метель} 10/6 600 м
[Sc As op]
-11.0 -12.7 87 -22 -22 1005.8 1003.1
15 25.03 СЗ 9-11
{15}
4000 м слаб. снег {метель} 10/4 600 м
[Sc As op]
-10.9 -13.1 84 -21 -21 1006.6 1003.9
18 25.03 С 11-13
{13}
4000 м слаб. снег {метель} 10/8 600 м
[Sc As op]
-9.8 -11.7 86 -21 -21 1006.7 1004.0 -14.1 0.6 40
21 25.03 С 10-12
{13}
20 км позёмок {снег} 9/0
[Ac trans]
-7.3 -8.8 89 -18 -18 1006.6 1003.9
00 26.03 С 9-12
{14}
20 км позёмок {снег} 9/9 600 м
[Sc]
-4.8 -6.2 90 -14 -14 1005.6 1002.9
03 26.03 С 11-13
{14}
20 км позёмок 10/10 600 м
[Sc]
-4.8 -5.8 93 -15 -15 1003.7 1001.0
06 26.03 СВ 13-19
{19}
2000 м метель 10/10 600 м
[Sc]
-4.0 -4.7 95 -15 -15 1000.6 997.9 -4.0 0.0
09 26.03 СВ 16-23
{23}
1000 м слаб. ливневой снег {метель} 10/10 300 м
[Cb cap]
-1.8 -2.2 97 -12 -12 995.3 992.7

 

Местоположение метеостанции Остров Врангеля (Чукотка, Россия): широта 70.98 долгота -178.00 высота над уровнем моря 21 м.

В архиве по умолчанию представлена погода на Острове Врангеля за последнюю неделю. Архивные данные за месяц целиком и за предыдущие месяцы, начиная с января 2011 года, Вы можете получить, выбрав интересующий диапазон дат из раскрывающегося списка и нажав кнопку "Ввод!".


*Определитесь, кто Вы:
робот инопланетянин человек

Внимание! Время в таблицах - всемирное. Для получения местного времени необходимо прибавить поправку, которая равна 12 ч.

Смотрите также архив погоды в соседних городах и на ближайших метеорологических станциях:

Погода на Мысе Шмидта (Чукотка, Россия) (238 км)
Погода на Мысе Биллингс (Чукотка, Россия) (265 км)
Погода в Паляваам-Глубокой (Чукотка, Россия) (364 км)
Погода на Мысе Ванкарем (Чукотка, Россия) (369 км)
Погода в Комсомольской (Чукотка, Россия) (404 км)
Погода в Майской (Чукотка, Россия) (423 км)
Погода в Валькаркае (Чукотка, Россия) (423 км)
Погода на 21 км (Чукотка, Россия) (444 км)
Погода в Певеке (Чукотка, Россия) (463 км)
Погода в Чауне (Чукотка, Россия) (489 км)

Пояснения к столбцам:

Ветер - указаны скорость ветра в м/с - средняя за 10 мин, порывы в срок и между сроками (в фигурных скобках) и направление, откуда дует ветер: С - северный, СВ - северо-восточный, В - восточный, ЮВ - юго-восточный, Ю - южный, ЮЗ - юго-западный, З - западный, СЗ - северо-западный.
Видимость - горизонтальная дальность видимости в метрах или километрах. При видимости от 1 до 10 км при отсутствии осадков обычно наблюдается дымка, при ухудшении видимости до 1 км и менее - туман. В сухую погоду видимость может ухудшаться дымом, пылью или мглою.
Явления - указаны атмосферные явления, наблюдавшиеся в срок или в последний час перед сроком; фигурными скобками обозначены явления, наблюдавшиеся между сроками (за 1-3 часа до срока); квадратными скобками обозначены град или гололедные отложения с указанием их диаметра в мм.
Облачность - указаны через наклонную черту общая и нижняя облачность в баллах и высота нижней границы облаков в метрах; квадратными скобками обозначены формы облаков: Ci - перистые, Cs - перисто-слоистые, Cc - перисто-кучевые, Ac - высококучевые, As - высокослоистые, Sc - слоисто-кучевые, Ns - слоисто-дождевые, Cu - кучевые, Cb - кучево-дождевые. Подробнее классификацию облаков см. в Атласе облаков (PDF).
T - Температура воздуха - температура, измеренная на высоте 2 м над землей.
Td - Температура точки росы - температура, при понижении до которой содержащийся в воздухе водяной пар достигнет насыщения.
f - Относительная влажность воздуха - влажноcть воздуха, измеренная на высоте 2 м над землей.
Te - Эффективная температура - температура, которую ощущает одетый по сезону человек в тени. Характеристика душности погоды. При расчете учитывается влияние влажности воздуха и скорости ветра на теплоощущения человека.
Tes - Эффективная температура на солнце - температура, которую ощущает человек, с поправкой на солнечный нагрев. Характеристика знойности погоды. Зависит от высоты солнца над горизонтом, облачности и скорости ветра. Ночью, в пасмурную погоду, а также при ветре 12 м/с и более поправка равна нулю.
P - Атмосферное давление - приведенное к уровню моря атмосферное давление.
Po - Атмосферное давление - измеренное на уровне метеостанции атмосферное давление.
Tmin - Минимальная температура - минимум температуры воздуха на высоте 2 м над землей.
Tmax - Максимальная температура - максимум температуры воздуха на высоте 2 м над землей.
R - Количество осадков - Количество выпавших осадков за период времени, мм. При наведении курсора мыши на число - период времени, за который выпало указанное количество осадков.
R24 - Количество осадков - Количество выпавших осадков за 24 часа, мм.
S - Снежный покров - Высота снежного покрова, см. При наведении курсора мыши на число - состояние снежного покрова и степень покрытия местности в баллах.